[[{"header":{"parameterUnit":"m.s-1","parameterCategory":2,"la1":30.2991,"la2":30.254,"lo1":-89.0895,"lo2":-89.0444,"dy":0.0017,"dx":0.0017,"nx":28,"ny":28,"refTime":"2023-11-05T03:00:00:Z","depth":"0","parameterNumber":2,"parameterNumberName":"U-component_of_CURRENTS"},"data":[0,0,0,0,0,0,0,0,0,0,0,0,0,0,0,0,0,0,0,0,0,0,0,0,0,0,0,0,0,0,0,0,0,0,0,0,0,0,0,0,0,0,0,0,0,0,0,0,0,0,0,0,0,0,0,0,0,0,0.3001,0.3001,0,0.3006,0.3006,0.3005,0.3029,0.3029,0.303,0.3031,0.2988,0.2987,0.2985,0,0,0,0,0,0,0,0,0,0,0,0,0,0.3006,0.3006,0.3001,0.3001,0.3001,0.3006,0.3006,0.3005,0.3029,0.3029,0.303,0.3031,0.2989,0.2987,0.2985,0,0,0,0,0,0,0,0,0,0,0,0,0,0.3005,0.3006,0.3001,0.3014,0.3016,0.3006,0.3006,0.3005,0.3028,0.303,0.3031,0.3032,0.299,0.2987,0.2984,0.2947,0,0,0.2976,0.2975,0,0,0,0,0,0,0,0,0.3005,0.3005,0.3012,0.3013,0.3015,0.3019,0.2992,0.2984,0.3028,0.3022,0.3031,0.3032,0.2995,0.2992,0.2988,0.2945,0.2943,0.2976,0.2974,0.2973,0.2973,0,0,0,0,0,0,0,0.3005,0.3005,0.3001,0.3012,0.3014,0.3019,0.302,0.2991,0.3,0.3023,0.3025,0.3027,0.2995,0.2991,0.2988,0.2942,0.2976,0.2974,0.2972,0.2971,0.2901,0.2901,0,0,0,0,0,0,0.3007,0.3005,0.3001,0.3001,0.3015,0.3018,0.3019,0.3015,0.3001,0.3001,0.3027,0.3029,0.2995,0.2991,0.2986,0.2985,0.2973,0.2971,0.2969,0.2902,0.2901,0.2901,0,0,0,0,0,0,0.3007,0.3006,0.3001,0.3005,0.3005,0.3017,0.3013,0.3015,0.3018,0.3005,0.3004,0.3029,0.2996,0.299,0.2979,0.2982,0.297,0.2967,0.2902,0.2902,0.2901,0.2955,0,0,0,0,0,0,0.3007,0.3006,0.3,0.3005,0.3005,0.3002,0.3012,0.3014,0.3019,0.3021,0.3006,0.3003,0.2996,0.2983,0.2976,0.2978,0.2965,0.2902,0.2902,0.2901,0.2953,0.2956,0.2959,0,0,0,0,0,0.3007,0.2991,0.2999,0.2999,0.2997,0.3002,0.3002,0.3014,0.3018,0.302,0.3017,0.3004,0.2975,0.2981,0.2973,0.2974,0.2903,0.2902,0.2901,0.2952,0.2956,0.2959,0,0,0,0,0,0,0.2989,0.2992,0.3002,0.2988,0.3001,0.3007,0.3002,0.3012,0.301,0.3011,0.3002,0.2998,0.2992,0.2968,0.2975,0.2951,0.2935,0.2933,0.2976,0.2979,0.2982,0.3004,0.2963,0,0,0,0,0,0.2983,0.297,0.2986,0.2975,0.298,0.2991,0.2993,0.3005,0.3007,0.3008,0.3003,0.299,0.298,0.297,0.2956,0.2936,0.2967,0.2929,0.2932,0.2935,0.2946,0.2998,0.3008,0.2899,0.2899,0.2899,0,0,0.2972,0.2972,0.2965,0.297,0.2976,0.2995,0.2994,0.2998,0.3016,0.2999,0.3011,0.3,0.2978,0.2972,0.2964,0.2953,0.2986,0.2934,0.2937,0.2947,0.2999,0.301,0.302,0.2899,0.2899,0.2899,0,0,0.2956,0.2946,0.2943,0.2956,0.2972,0.2984,0.2989,0.3004,0.3011,0.3023,0.3017,0.301,0.2994,0.2983,0.2973,0.2973,0.3004,0.2965,0.2993,0.3043,0.3054,0.3063,0.3147,0.3163,0.2961,0.2961,0.2961,0,0.2943,0.2948,0.2944,0.2958,0.297,0.2984,0.3003,0.3012,0.3026,0.3029,0.3035,0.3037,0.3002,0.3006,0.3004,0.2981,0.3036,0.2987,0.3051,0.3061,0.307,0.3153,0.317,0.2964,0.2964,0.2963,0.2963,0,0.2946,0.2952,0.2948,0.2975,0.2989,0.2997,0.3024,0.3037,0.3051,0.3064,0.3082,0.3066,0.3075,0.3049,0.3025,0.3058,0.3089,0.3058,0.3053,0.3085,0.3169,0.3187,0.2967,0.2967,0.2966,0.2965,0,0,0.2903,0.2942,0.294,0.2965,0.2997,0.3011,0.3038,0.3064,0.3093,0.3109,0.3149,0.312,0.3133,0.3123,0.3101,0.312,0.3215,0.3118,0.312,0.3221,0.3379,0.3346,0.3362,0.3215,0.3218,0.322,0.3426,0,0.2906,0.2931,0.2953,0.2991,0.3012,0.304,0.3069,0.3095,0.3125,0.3165,0.3159,0.3188,0.3158,0.3176,0.3197,0.3198,0.3259,0.3165,0.3316,0.3321,0.3303,0.3379,0.3174,0.3335,0.3443,0.3446,0.3448,0,0.291,0.2925,0.2954,0.301,0.3022,0.3049,0.3105,0.3139,0.3188,0.3212,0.326,0.328,0.331,0.3282,0.3374,0.3328,0.3373,0.3381,0.3389,0.335,0.3318,0.3311,0.3362,0.3268,0.3475,0.3472,0.347,0,0.2888,0.2931,0.2951,0.2967,0.303,0.3049,0.3086,0.3141,0.318,0.3256,0.3307,0.3365,0.3419,0.3468,0.3512,0.3459,0.3633,0.3557,0.359,0.3591,0.3437,0.3419,0.3423,0.3661,0.3661,0.366,0.366,0,0.2881,0.2897,0.294,0.2954,0.2989,0.3041,0.3092,0.3141,0.3221,0.327,0.3341,0.341,0.3472,0.3575,0.3586,0.367,0.3718,0.363,0.3643,0.3451,0.3432,0.3357,0.3319,0.3668,0.3666,0.3665,0.3664,0,0.286,0.2877,0.2917,0.297,0.2982,0.3013,0.3088,0.313,0.3221,0.3302,0.3337,0.3479,0.3587,0.3677,0.3775,0.3779,0.3728,0.3865,0.3657,0.364,0.35,0.3471,0.341,0.3324,0.3901,0.3902,0.3902,0,0.2856,0.2875,0.2924,0.2928,0.2947,0.299,0.3014,0.3107,0.3155,0.3327,0.3361,0.3529,0.3585,0.3768,0.379,0.3867,0.3764,0.3774,0.3595,0.3497,0.3477,0.3342,0.3263,0.3437,0.3433,0.3431,0.3428,0,0.2872,0.2886,0.291,0.2919,0.2933,0.2959,0.3003,0.3036,0.3152,0.3222,0.3329,0.3394,0.3558,0.3534,0.3689,0.3698,0.3553,0.3717,0.3651,0.3155,0.2972,0.2892,0.3337,0.3403,0.3405,0.3407,0.3409,0.341,0.289,0.29,0.2923,0.2925,0.2925,0.2922,0.2911,0.2959,0.3015,0.3087,0.3216,0.3252,0.3323,0.3445,0.3458,0.337,0.3377,0.3253,0.3252,0.3145,0.2961,0.3379,0.3425,0.3427,0.343,0.3432,0.3433,0,0.2921,0.2918,0.2925,0.2906,0.2875,0.289,0.2895,0.2859,0.2857,0.2944,0.2993,0.3005,0.299,0.3035,0.3008,0.2927,0.2773,0.2871,0.2604,0.2569,0.297,0.2845,0.2721,0.2721,0.2721,0.2721,0.2721,0.2721,0.2942,0.2939,0.2929,0.2868,0.2834,0.2753,0.273,0.2677,0.2692,0.2636,0.2611,0.2641,0.2718,0.2742,0.264,0.2586,0.2412,0.2289,0.2365,0.261,0.2642,0.2674,0.2545,0.2361,0.236,0.1788,0.1784,0.178]},{"header":{"parameterUnit":"m.s-1","parameterCategory":2,"la1":30.2991,"la2":30.254,"lo1":-89.0895,"lo2":-89.0444,"dy":0.0017,"dx":0.0017,"nx":28,"ny":28,"refTime":"2023-11-05T03:00:00:Z","depth":"0","parameterNumber":3,"parameterNumberName":"V-component_of_CURRENTS"},"data":[0,0,0,0,0,0,0,0,0,0,0,0,0,0,0,0,0,0,0,0,0,0,0,0,0,0,0,0,0,0,0,0,0,0,0,0,0,0,0,0,0,0,0,0,0,0,0,0,0,0,0,0,0,0,0,0,0,0,-0.1063,-0.1062,0,-0.1042,-0.1042,-0.1042,-0.1039,-0.1039,-0.104,-0.104,-0.1068,-0.1069,-0.1069,0,0,0,0,0,0,0,0,0,0,0,0,0,-0.1093,-0.1093,-0.1063,-0.1062,-0.1062,-0.1042,-0.1042,-0.1041,-0.1039,-0.104,-0.104,-0.104,-0.1068,-0.1069,-0.1069,0,0,0,0,0,0,0,0,0,0,0,0,0,-0.1077,-0.1093,-0.1063,-0.1058,-0.1058,-0.1042,-0.1042,-0.1041,-0.1039,-0.104,-0.104,-0.104,-0.1068,-0.1068,-0.1069,-0.1069,0,0,-0.1072,-0.1072,0,0,0,0,0,0,0,0,-0.1078,-0.1076,-0.1059,-0.1059,-0.1058,-0.1043,-0.1063,-0.1053,-0.1039,-0.1047,-0.104,-0.104,-0.1064,-0.1065,-0.106,-0.1071,-0.1072,-0.1072,-0.1073,-0.1073,-0.1073,0,0,0,0,0,0,0,-0.1079,-0.1077,-0.1055,-0.1059,-0.1058,-0.1055,-0.1053,-0.1061,-0.1055,-0.1046,-0.1046,-0.1043,-0.1064,-0.1059,-0.1061,-0.1072,-0.1072,-0.1073,-0.1073,-0.1074,-0.1127,-0.1128,0,0,0,0,0,0,-0.1081,-0.1078,-0.1055,-0.1054,-0.1069,-0.1054,-0.1052,-0.1048,-0.1054,-0.1055,-0.1043,-0.1043,-0.1058,-0.106,-0.1062,-0.1046,-0.1073,-0.1074,-0.1074,-0.1126,-0.1127,-0.1128,0,0,0,0,0,0,-0.1082,-0.1079,-0.1056,-0.1066,-0.1062,-0.1053,-0.1049,-0.1047,-0.1044,-0.1051,-0.1053,-0.1041,-0.1058,-0.1061,-0.106,-0.1048,-0.1074,-0.1075,-0.1125,-0.1126,-0.1128,-0.1024,0,0,0,0,0,0,-0.1083,-0.108,-0.107,-0.1066,-0.1062,-0.1035,-0.1048,-0.1047,-0.1042,-0.1042,-0.105,-0.1053,-0.1059,-0.1058,-0.106,-0.1049,-0.1076,-0.1124,-0.1126,-0.1127,-0.1027,-0.1022,-0.1018,0,0,0,0,0,-0.1084,-0.1065,-0.107,-0.1067,-0.1052,-0.1034,-0.1031,-0.1026,-0.1041,-0.1028,-0.1037,-0.1052,-0.1072,-0.1058,-0.1061,-0.105,-0.1123,-0.1125,-0.1127,-0.1029,-0.1023,-0.1018,0,0,0,0,0,0,-0.1065,-0.1062,-0.1068,-0.1047,-0.1039,-0.1033,-0.102,-0.1027,-0.1024,-0.1028,-0.1044,-0.1046,-0.1047,-0.1073,-0.1058,-0.1079,-0.1108,-0.1111,-0.1033,-0.1028,-0.1024,-0.0983,-0.1076,0,0,0,0,0,-0.106,-0.1044,-0.1046,-0.1024,-0.1026,-0.1028,-0.102,-0.1019,-0.1019,-0.1018,-0.1023,-0.1045,-0.1058,-0.106,-0.1076,-0.1074,-0.1062,-0.1081,-0.1077,-0.1072,-0.1047,-0.1049,-0.104,-0.1135,-0.1134,-0.1134,0,0,-0.1041,-0.104,-0.1028,-0.1019,-0.1017,-0.0987,-0.1023,-0.1009,-0.0977,-0.1023,-0.0987,-0.1024,-0.1057,-0.1051,-0.1056,-0.1067,-0.1032,-0.1075,-0.107,-0.1047,-0.105,-0.104,-0.1031,-0.1136,-0.1136,-0.1135,0,0,-0.0989,-0.1005,-0.0972,-0.0965,-0.0959,-0.0959,-0.0956,-0.0954,-0.0952,-0.0931,-0.0964,-0.0987,-0.1,-0.1014,-0.1027,-0.1015,-0.1011,-0.1042,-0.0974,-0.0976,-0.0966,-0.0958,-0.0878,-0.0864,-0.1036,-0.1036,-0.1036,0,-0.0952,-0.0921,-0.0957,-0.0924,-0.09,-0.0943,-0.0893,-0.0896,-0.0888,-0.0878,-0.0909,-0.0935,-0.0976,-0.0962,-0.0966,-0.0999,-0.0973,-0.0979,-0.0963,-0.0956,-0.0949,-0.087,-0.0855,-0.1031,-0.1032,-0.1032,-0.1033,0,-0.0876,-0.0848,-0.0831,-0.0799,-0.0787,-0.0751,-0.0765,-0.0756,-0.0773,-0.0776,-0.0776,-0.0831,-0.0841,-0.088,-0.0915,-0.0899,-0.0882,-0.0953,-0.0959,-0.0932,-0.0851,-0.0838,-0.1024,-0.1026,-0.1027,-0.1029,0,0,-0.0742,-0.0769,-0.0746,-0.0718,-0.0713,-0.0684,-0.0657,-0.0629,-0.0588,-0.063,-0.0569,-0.0651,-0.0695,-0.0716,-0.0778,-0.0797,-0.0732,-0.0848,-0.085,-0.0734,-0.0661,-0.0559,-0.0535,-0.0797,-0.0796,-0.0795,-0.0602,0,-0.064,-0.0574,-0.0607,-0.0512,-0.0473,-0.051,-0.0467,-0.0462,-0.0472,-0.043,-0.0515,-0.0493,-0.0628,-0.0622,-0.0667,-0.072,-0.07,-0.0772,-0.0734,-0.0731,-0.0618,-0.0519,-0.054,-0.0364,-0.0589,-0.0587,-0.0585,0,-0.051,-0.0486,-0.0405,-0.0367,-0.035,-0.03,-0.0237,-0.0208,-0.0204,-0.0212,-0.0239,-0.0295,-0.0323,-0.0444,-0.0496,-0.0532,-0.0575,-0.0624,-0.0619,-0.055,-0.0606,-0.0444,-0.0332,-0.0497,-0.0564,-0.0566,-0.0568,0,-0.0372,-0.0316,-0.0251,-0.0234,-0.0215,-0.0169,-0.0141,-0.0129,-0.0076,-0.0057,0.0001,-0.0084,-0.0057,-0.018,-0.0296,-0.0387,-0.0315,-0.0456,-0.0385,-0.0375,-0.0397,-0.0392,-0.0414,-0.0455,-0.0456,-0.0456,-0.0457,0,-0.023,-0.0159,-0.0178,-0.0134,-0.0014,-0.0044,0.0082,0.0088,0.0141,0.0253,0.0133,0.0233,0.0006,0.0001,-0.0168,-0.0184,-0.0207,-0.0312,-0.0314,-0.0357,-0.0351,-0.0502,-0.0609,-0.0449,-0.0451,-0.0452,-0.0453,0,-0.0085,-0.0108,-0.0018,0.0016,0.0046,0.0137,0.0235,0.0323,0.035,0.0507,0.0535,0.052,0.0529,0.0347,0.0223,0.0058,-0.0083,-0.0024,-0.0006,-0.0009,-0.0143,-0.0242,-0.0177,-0.0238,0.008,0.0084,0.0087,0,-0.0013,0.0039,0.0102,0.0166,0.0193,0.0309,0.0399,0.0438,0.0543,0.0705,0.0815,0.0883,0.0955,0.0848,0.0573,0.0392,0.016,0.0253,0.0044,-0.0083,-0.0199,-0.0273,-0.034,0.0074,0.0077,0.0079,0.0081,0,0.0139,0.0149,0.0201,0.0324,0.0431,0.0557,0.069,0.0803,0.0892,0.1042,0.1256,0.1334,0.127,0.1082,0.0844,0.0668,0.0144,0.03,0.012,-0.0205,-0.0243,-0.0326,-0.0067,0.0102,0.01,0.0098,0.0097,0.0096,0.0249,0.0317,0.0371,0.0497,0.0622,0.0791,0.0913,0.107,0.1277,0.1504,0.1573,0.1724,0.1429,0.1106,0.0874,0.0411,0.0378,0.0172,0.0075,0.0024,-0.0081,0.0297,0.0476,0.0477,0.0477,0.0477,0.0477,0,0.0372,0.0428,0.0546,0.0687,0.0842,0.0879,0.1097,0.1225,0.1484,0.1716,0.1897,0.1849,0.1483,0.1069,0.0455,0.0155,-0.0015,-0.0013,-0.0217,-0.0272,0.0019,-0.0035,0.0099,0.0099,0.0099,0.0099,0.0099,0.0099,0.0433,0.0547,0.0595,0.0848,0.0959,0.116,0.1283,0.1484,0.1663,0.1942,0.2044,0.2092,0.1765,0.0696,-0.0033,-0.0196,-0.0453,-0.043,-0.0538,-0.0471,-0.0466,-0.0462,-0.0541,-0.0515,-0.0516,-0.0848,-0.0851,-0.0854]}],[{"header":{"parameterUnit":"m.s-1","parameterCategory":2,"la1":30.2991,"la2":30.254,"lo1":-89.0895,"lo2":-89.0444,"dy":0.0017,"dx":0.0017,"nx":28,"ny":28,"refTime":"2023-11-05T03:00:00:Z","depth":"2","parameterNumber":2,"parameterNumberName":"U-component_of_CURRENTS"},"data":[0,0,0,0,0,0,0,0,0,0,0,0,0,0,0,0,0,0,0,0,0,0,0,0,0,0,0,0,0,0,0,0,0,0,0,0,0,0,0,0,0,0,0,0,0,0,0,0,0,0,0,0,0,0,0,0,0,0,0.1922,0.1923,0,0.1993,0.1995,0.1996,0.2036,0.2036,0.2035,0.2035,0.209,0.2091,0.2093,0,0,0,0,0,0,0,0,0,0,0,0,0,0.1907,0.1907,0.1922,0.1923,0.1923,0.1993,0.1995,0.1996,0.2036,0.2036,0.2035,0.2034,0.2089,0.2091,0.2094,0,0,0,0,0,0,0,0,0,0,0,0,0,0.1946,0.1907,0.1922,0.1946,0.1948,0.1993,0.1995,0.1997,0.2037,0.2036,0.2035,0.2034,0.2088,0.2091,0.2094,0.2128,0,0,0.2103,0.2104,0,0,0,0,0,0,0,0,0.1944,0.1947,0.1942,0.1944,0.1947,0.1999,0.2009,0.2037,0.2037,0.2011,0.2035,0.2034,0.2054,0.2059,0.2085,0.213,0.2133,0.2103,0.2105,0.2106,0.2107,0,0,0,0,0,0,0,0.1941,0.1945,0.1958,0.1942,0.1945,0.1982,0.1986,0.2016,0.2041,0.2013,0.2014,0.2011,0.2056,0.2082,0.2086,0.2133,0.2103,0.2106,0.2107,0.2109,0.2274,0.2276,0,0,0,0,0,0,0.1914,0.1942,0.1955,0.1959,0.1935,0.1982,0.1987,0.1989,0.2041,0.2046,0.2011,0.2012,0.2077,0.2083,0.2088,0.2196,0.2106,0.2109,0.211,0.2271,0.2275,0.2277,0,0,0,0,0,0,0.1913,0.1915,0.1952,0.1946,0.1953,0.1981,0.1984,0.199,0.2029,0.2039,0.2045,0.2043,0.2077,0.2084,0.2127,0.2195,0.211,0.2113,0.2268,0.2272,0.2276,0.2369,0,0,0,0,0,0,0.1913,0.1914,0.1929,0.1944,0.1952,0.1987,0.1984,0.1992,0.2024,0.2026,0.2068,0.2071,0.2077,0.2123,0.213,0.2198,0.2115,0.2265,0.227,0.2275,0.2363,0.2376,0.2387,0,0,0,0,0,0.1912,0.1932,0.1929,0.1932,0.1963,0.1987,0.1996,0.2019,0.2026,0.2051,0.2077,0.2071,0.216,0.2127,0.2135,0.2205,0.2262,0.2269,0.2274,0.2357,0.2373,0.2387,0,0,0,0,0,0,0.1943,0.1937,0.1935,0.1955,0.1969,0.1991,0.2016,0.2031,0.2076,0.2079,0.2094,0.2101,0.2175,0.217,0.2133,0.2268,0.2216,0.2223,0.2276,0.2291,0.2303,0.2245,0.2117,0,0,0,0,0,0.195,0.1959,0.196,0.1978,0.1982,0.2004,0.2023,0.2034,0.2061,0.2082,0.2117,0.2155,0.2207,0.2228,0.2268,0.2329,0.231,0.2382,0.2395,0.2405,0.2364,0.2413,0.2425,0.2297,0.2297,0.2297,0,0,0.1957,0.1964,0.1964,0.1985,0.1998,0.2026,0.2016,0.2043,0.2085,0.2079,0.2163,0.2201,0.2233,0.2312,0.2345,0.2314,0.244,0.2412,0.2421,0.2373,0.242,0.2432,0.2443,0.2301,0.23,0.23,0,0,0.1974,0.1989,0.1994,0.2024,0.2042,0.2054,0.2063,0.2098,0.2131,0.2197,0.2221,0.2273,0.2358,0.239,0.2416,0.2511,0.2507,0.2559,0.2569,0.2619,0.2629,0.2637,0.2656,0.2665,0.256,0.256,0.256,0,0.1988,0.2003,0.2005,0.2039,0.2071,0.2068,0.2102,0.2139,0.2194,0.2217,0.223,0.2364,0.2387,0.2475,0.2509,0.2536,0.2556,0.2514,0.2633,0.264,0.2647,0.2663,0.2672,0.2565,0.2565,0.2564,0.2564,0,0.2004,0.2042,0.2056,0.2092,0.2131,0.2161,0.2196,0.2249,0.2285,0.2302,0.2399,0.2449,0.2516,0.2562,0.2558,0.2644,0.2642,0.2649,0.2589,0.2665,0.2678,0.2686,0.2573,0.2571,0.2569,0.2568,0,0,0.1969,0.2044,0.2057,0.2105,0.2167,0.2202,0.2274,0.2317,0.2374,0.2425,0.2492,0.2577,0.2587,0.2615,0.2657,0.2681,0.2756,0.2683,0.2683,0.2685,0.286,0.2762,0.276,0.2805,0.2806,0.2808,0.2858,0,0.198,0.2041,0.2091,0.2186,0.2218,0.2287,0.2349,0.2399,0.2463,0.253,0.2548,0.2626,0.2619,0.268,0.2706,0.2751,0.2776,0.2739,0.2794,0.2794,0.2687,0.2765,0.2546,0.2564,0.2865,0.2866,0.2867,0,0.1977,0.2025,0.2091,0.2227,0.2251,0.231,0.2436,0.2505,0.2568,0.2617,0.2677,0.2703,0.2749,0.2739,0.2817,0.2808,0.2823,0.2837,0.284,0.2703,0.2708,0.2533,0.2565,0.2878,0.2877,0.2876,0.2876,0,0.1924,0.2048,0.21,0.2149,0.2273,0.2335,0.2403,0.25,0.256,0.2668,0.2714,0.2783,0.2827,0.2864,0.2888,0.2874,0.2953,0.2947,0.2866,0.286,0.2649,0.2621,0.298,0.298,0.298,0.298,0.298,0,0.1918,0.1982,0.2081,0.2118,0.2206,0.231,0.2402,0.2509,0.2601,0.2645,0.2742,0.2796,0.2862,0.2913,0.292,0.2914,0.2993,0.2853,0.2867,0.2679,0.2654,0.2894,0.2884,0.2982,0.2981,0.2981,0.2981,0,0.1871,0.1925,0.2014,0.2137,0.2176,0.2249,0.2375,0.244,0.2557,0.2638,0.2663,0.2797,0.2865,0.2927,0.2991,0.295,0.2961,0.2939,0.2695,0.2676,0.2819,0.2813,0.2837,0.2834,0.2832,0.2829,0.2828,0,0.1849,0.1864,0.2002,0.2052,0.2116,0.2206,0.2246,0.2382,0.2451,0.2618,0.2639,0.2751,0.2792,0.2862,0.2825,0.2829,0.2914,0.262,0.2524,0.2793,0.2805,0.2803,0.2801,0.2302,0.2296,0.2291,0.2287,0,0.1825,0.1867,0.195,0.2008,0.2077,0.2143,0.2223,0.2251,0.2396,0.2463,0.2555,0.2604,0.2665,0.257,0.2592,0.255,0.2599,0.2516,0.2894,0.2364,0.229,0.2302,0.2317,0.2244,0.2248,0.2251,0.2253,0.2255,0.1834,0.1864,0.1941,0.2006,0.2067,0.2091,0.209,0.2152,0.2203,0.2278,0.2377,0.2385,0.2405,0.2306,0.223,0.2164,0.2325,0.2224,0.2239,0.2259,0.2179,0.2105,0.2007,0.201,0.2012,0.2015,0.2017,0,0.1865,0.1882,0.1927,0.1993,0.201,0.2063,0.2082,0.2034,0.2026,0.2092,0.2123,0.1956,0.1898,0.1934,0.1763,0.1734,0.1706,0.1661,0.1629,0.1673,0.1713,0.1605,0.1281,0.1279,0.1276,0.1274,0,0,0.1886,0.1917,0.1904,0.1921,0.1954,0.1902,0.189,0.1824,0.1817,0.1755,0.1733,0.1841,0.1902,0.1596,0.1526,0.1391,0.1521,0.1319,0.1912,0.1922,0.1958,0.2039,0.1923,0,0,0,0,0]},{"header":{"parameterUnit":"m.s-1","parameterCategory":2,"la1":30.2991,"la2":30.254,"lo1":-89.0895,"lo2":-89.0444,"dy":0.0017,"dx":0.0017,"nx":28,"ny":28,"refTime":"2023-11-05T03:00:00:Z","depth":"2","parameterNumber":3,"parameterNumberName":"V-component_of_CURRENTS"},"data":[0,0,0,0,0,0,0,0,0,0,0,0,0,0,0,0,0,0,0,0,0,0,0,0,0,0,0,0,0,0,0,0,0,0,0,0,0,0,0,0,0,0,0,0,0,0,0,0,0,0,0,0,0,0,0,0,0,0,0.0373,0.0374,0,0.0385,0.0384,0.0384,0.0353,0.0352,0.0352,0.0352,0.029,0.0288,0.0287,0,0,0,0,0,0,0,0,0,0,0,0,0,0.037,0.0369,0.0373,0.0374,0.0375,0.0385,0.0384,0.0383,0.0353,0.0352,0.0352,0.0352,0.029,0.0289,0.0287,0,0,0,0,0,0,0,0,0,0,0,0,0,0.0368,0.0369,0.0373,0.0366,0.0366,0.0385,0.0384,0.0383,0.0353,0.0352,0.0352,0.0352,0.0291,0.0289,0.0287,0.0282,0,0,0.028,0.0279,0,0,0,0,0,0,0,0,0.0368,0.0367,0.0366,0.0367,0.0367,0.0373,0.0361,0.0348,0.0353,0.035,0.0352,0.0351,0.0316,0.0312,0.0305,0.0279,0.0277,0.028,0.0279,0.0278,0.0277,0,0,0,0,0,0,0,0.0368,0.0367,0.037,0.0368,0.0368,0.0379,0.0376,0.0358,0.0328,0.035,0.035,0.0363,0.0314,0.0307,0.0304,0.0276,0.028,0.0278,0.0277,0.0276,0.0271,0.0272,0,0,0,0,0,0,0.038,0.0367,0.037,0.0371,0.0375,0.0379,0.0377,0.0366,0.033,0.0327,0.0363,0.0362,0.0311,0.0306,0.0301,0.0303,0.0278,0.0276,0.0275,0.027,0.0271,0.0272,0,0,0,0,0,0,0.0379,0.0379,0.037,0.0377,0.0377,0.038,0.0368,0.0366,0.0355,0.0342,0.0336,0.0354,0.0311,0.0304,0.0289,0.03,0.0275,0.0273,0.0268,0.027,0.0272,0.03,0,0,0,0,0,0,0.0378,0.0378,0.0367,0.0377,0.0378,0.0382,0.0369,0.0367,0.0368,0.0365,0.0332,0.0327,0.031,0.0292,0.0287,0.0296,0.0272,0.0267,0.0269,0.0271,0.0297,0.0302,0.0306,0,0,0,0,0,0.0378,0.0376,0.0365,0.0366,0.0363,0.0383,0.0383,0.038,0.0368,0.0365,0.0347,0.0327,0.0302,0.0291,0.0285,0.0294,0.0266,0.0268,0.0271,0.0295,0.0301,0.0306,0,0,0,0,0,0,0.0365,0.0374,0.0362,0.0359,0.0369,0.038,0.0387,0.0379,0.0362,0.036,0.0331,0.0324,0.0319,0.0305,0.0294,0.0302,0.0285,0.0286,0.0306,0.0311,0.0315,0.0335,0.027,0,0,0,0,0,0.0359,0.0354,0.0368,0.0362,0.0374,0.0375,0.038,0.0381,0.0377,0.0368,0.0346,0.0332,0.0326,0.0316,0.0307,0.0302,0.0274,0.0309,0.0314,0.0317,0.0332,0.0283,0.0283,0.028,0.028,0.028,0,0,0.0352,0.0357,0.0353,0.0359,0.0367,0.0389,0.0375,0.0392,0.0408,0.0365,0.0364,0.0342,0.0329,0.033,0.0327,0.0316,0.0305,0.0321,0.0324,0.0336,0.0285,0.0285,0.0285,0.0282,0.0282,0.0281,0,0,0.0358,0.0344,0.0352,0.036,0.0383,0.0398,0.0404,0.0413,0.0414,0.0415,0.0394,0.0377,0.0363,0.0354,0.035,0.0374,0.033,0.0375,0.0407,0.0359,0.0358,0.0357,0.0321,0.0317,0.0375,0.0375,0.0375,0,0.0351,0.0359,0.0359,0.0374,0.0397,0.0404,0.0434,0.0439,0.0437,0.0448,0.0423,0.0402,0.0379,0.0385,0.0397,0.0382,0.0351,0.0383,0.0362,0.036,0.0359,0.0323,0.0317,0.0377,0.0377,0.0377,0.0376,0,0.0369,0.0374,0.0387,0.0409,0.0429,0.0458,0.0483,0.0495,0.0498,0.0501,0.05,0.0459,0.0446,0.0437,0.0424,0.0414,0.0394,0.037,0.0343,0.036,0.0322,0.0316,0.0379,0.0379,0.0378,0.0378,0,0,0.0361,0.0397,0.0397,0.0423,0.0456,0.0484,0.0521,0.0568,0.0592,0.057,0.0584,0.0561,0.0526,0.052,0.0484,0.0447,0.0402,0.0409,0.0406,0.0365,0.03,0.0262,0.0251,0.0363,0.0362,0.0362,0.0276,0,0.0381,0.0427,0.044,0.0493,0.053,0.0554,0.0597,0.063,0.0637,0.0646,0.0613,0.0608,0.0562,0.0546,0.0499,0.0434,0.0388,0.0428,0.0298,0.0295,0.025,0.0244,0.0264,0.0187,0.027,0.0269,0.0268,0,0.0397,0.0434,0.0492,0.0562,0.0583,0.0613,0.0688,0.0722,0.0742,0.0741,0.0714,0.0679,0.0638,0.0582,0.0466,0.0491,0.0404,0.0341,0.0336,0.0289,0.0246,0.0184,0.0172,0.0257,0.0258,0.0259,0.026,0,0.042,0.0471,0.053,0.0546,0.0622,0.0659,0.0708,0.0749,0.0798,0.0788,0.0807,0.0733,0.0705,0.0587,0.0465,0.0458,0.0327,0.0295,0.0178,0.0174,0.0163,0.016,0.02,0.02,0.02,0.02,0.02,0,0.0448,0.049,0.054,0.0575,0.0657,0.069,0.0774,0.0803,0.0847,0.0908,0.0848,0.0858,0.0703,0.0615,0.0483,0.0318,0.0332,0.0186,0.0147,0.0175,0.0173,0.0216,0.0219,0.0197,0.0198,0.0198,0.0199,0,0.0466,0.0495,0.0563,0.0642,0.0672,0.0726,0.0836,0.0894,0.0925,0.0992,0.0998,0.095,0.0827,0.0668,0.0476,0.035,0.0191,0.0125,0.0176,0.0143,0.0065,0.0071,-0.0018,-0.002,-0.0022,-0.0023,-0.0025,0,0.0487,0.0523,0.0609,0.0657,0.0694,0.0781,0.0859,0.0925,0.099,0.1054,0.1092,0.1003,0.0947,0.0659,0.041,0.0161,0.015,0.0025,0.0008,0.0071,0.0042,0.005,0.0058,0.0006,0.0005,0.0004,0.0004,0,0.0536,0.0555,0.0615,0.0711,0.0786,0.0887,0.0992,0.1057,0.1143,0.1192,0.123,0.1187,0.0923,0.067,0.0336,0.0171,0.0064,-0.0,0.0044,0.0059,0.0086,0.006,0.0068,-0.0003,-0.0002,-0.0002,-0.0001,-0.0001,0.0567,0.0611,0.0687,0.0775,0.0864,0.0985,0.1075,0.1174,0.1279,0.1348,0.1304,0.1233,0.0975,0.0521,0.0263,-0.0008,-0.0008,-0.0094,-0.0089,-0.0084,-0.0065,-0.0042,-0.0151,-0.0151,-0.0151,-0.0152,-0.0152,0,0.0607,0.0668,0.0757,0.0867,0.0967,0.1015,0.1166,0.1244,0.1353,0.138,0.1378,0.1109,0.0837,0.0553,0.0146,-0.0096,-0.0099,-0.0167,-0.0103,-0.0096,-0.0089,-0.0068,-0.0157,-0.0157,-0.0158,-0.0158,0,0,0.0638,0.0726,0.0775,0.0936,0.1019,0.1155,0.1242,0.1335,0.1385,0.1391,0.1336,0.1227,0.0902,0.0612,0.0291,0.0077,0.0047,0.0026,0.0052,0.0172,0.0182,-0.0034,0.0008,0,0,0,0,0]}],[{"header":{"parameterUnit":"m.s-1","parameterCategory":2,"la1":30.2991,"la2":30.254,"lo1":-89.0895,"lo2":-89.0444,"dy":0.0017,"dx":0.0017,"nx":28,"ny":28,"refTime":"2023-11-05T03:00:00:Z","depth":"4","parameterNumber":2,"parameterNumberName":"U-component_of_CURRENTS"},"data":[0,0,0,0,0,0,0,0,0,0,0,0,0,0,0,0,0,0,0,0,0,0,0,0,0,0,0,0,0,0,0,0,0,0,0,0,0,0,0,0,0,0,0,0,0,0,0,0,0,0,0,0,0,0,0,0,0,0,0.0887,0.0887,0,0.0897,0.0897,0.0897,0.0917,0.0918,0.0919,0.0919,0.0972,0.0973,0.0974,0,0,0,0,0,0,0,0,0,0,0,0,0,0.0848,0.0848,0.0887,0.0887,0.0887,0.0897,0.0897,0.0897,0.0917,0.0918,0.0919,0.0919,0.0972,0.0973,0.0974,0,0,0,0,0,0,0,0,0,0,0,0,0,0.086,0.0848,0.0887,0.09,0.0902,0.0897,0.0897,0.0897,0.0917,0.0918,0.0919,0.092,0.0972,0.0973,0.0974,0.0965,0,0,0.0978,0.0979,0,0,0,0,0,0,0,0,0.0859,0.0861,0.0898,0.0899,0.0901,0.0909,0.0903,0.0923,0.0917,0.0909,0.0919,0.092,0.0956,0.0958,0.0955,0.0968,0.097,0.0979,0.0979,0.098,0.098,0,0,0,0,0,0,0,0.0859,0.0861,0.0889,0.0898,0.09,0.0893,0.0896,0.0906,0.0927,0.091,0.0912,0.0916,0.0957,0.0954,0.0957,0.0971,0.0978,0.098,0.098,0.0981,0.108,0.1082,0,0,0,0,0,0,0.0862,0.086,0.0889,0.0889,0.0884,0.0894,0.0897,0.0904,0.0926,0.093,0.0915,0.0917,0.0951,0.0955,0.0959,0.1028,0.098,0.0981,0.0982,0.1078,0.108,0.1082,0,0,0,0,0,0,0.0862,0.0865,0.0888,0.0876,0.0879,0.0894,0.0901,0.0903,0.0923,0.093,0.0935,0.0935,0.0952,0.0957,0.0988,0.1028,0.0982,0.0983,0.1076,0.1079,0.1081,0.1117,0,0,0,0,0,0,0.086,0.0865,0.0882,0.0877,0.088,0.0896,0.0901,0.0903,0.0924,0.0927,0.0948,0.0952,0.0953,0.0986,0.0989,0.1029,0.0984,0.1074,0.1077,0.108,0.1113,0.112,0.1126,0,0,0,0,0,0.0859,0.0877,0.0882,0.0886,0.09,0.0897,0.0898,0.0909,0.0924,0.0931,0.0952,0.0953,0.1011,0.0988,0.0991,0.1032,0.1072,0.1076,0.108,0.111,0.1119,0.1126,0,0,0,0,0,0,0.0869,0.088,0.0887,0.0908,0.0908,0.0901,0.0921,0.0921,0.0941,0.0961,0.0963,0.0968,0.1016,0.1018,0.0992,0.1074,0.1048,0.1053,0.107,0.1078,0.1084,0.1118,0.0985,0,0,0,0,0,0.0878,0.0898,0.0897,0.0915,0.0924,0.0925,0.0932,0.0938,0.0949,0.096,0.0975,0.1004,0.1031,0.1049,0.107,0.1103,0.1117,0.1138,0.1144,0.1149,0.1182,0.1225,0.1239,0.1096,0.1096,0.1096,0,0,0.0887,0.0898,0.0909,0.0919,0.0929,0.0938,0.0933,0.0953,0.0971,0.0964,0.1009,0.1026,0.1046,0.1088,0.1111,0.1097,0.1195,0.1155,0.1159,0.119,0.1231,0.1245,0.1257,0.1099,0.1098,0.1098,0,0,0.0904,0.0927,0.0946,0.0948,0.0966,0.0968,0.0978,0.0987,0.1009,0.104,0.1052,0.1091,0.1124,0.1148,0.1163,0.122,0.1228,0.1235,0.1296,0.1336,0.1348,0.1359,0.1376,0.1388,0.1238,0.1238,0.1238,0,0.0913,0.0934,0.0948,0.0961,0.0968,0.0984,0.0994,0.1018,0.1037,0.1069,0.1067,0.1156,0.1156,0.1226,0.1247,0.1236,0.1258,0.1256,0.1344,0.1355,0.1366,0.1381,0.1394,0.124,0.124,0.124,0.124,0,0.0934,0.0953,0.0967,0.099,0.0999,0.1014,0.1038,0.1074,0.1107,0.1132,0.1218,0.1234,0.1292,0.1296,0.1288,0.1376,0.1365,0.1343,0.132,0.1382,0.1394,0.1407,0.1243,0.1243,0.1242,0.1241,0,0,0.0938,0.0973,0.0979,0.0988,0.1015,0.1021,0.1075,0.1122,0.1181,0.123,0.1308,0.136,0.1397,0.142,0.1427,0.1463,0.1529,0.1446,0.1447,0.1457,0.1619,0.1483,0.1483,0.1528,0.1531,0.1534,0.1589,0,0.0946,0.0973,0.0987,0.1011,0.1023,0.1055,0.1093,0.1148,0.1217,0.1301,0.1369,0.1446,0.1437,0.148,0.1521,0.1532,0.1571,0.1517,0.1565,0.1567,0.1432,0.1496,0.1543,0.1599,0.1602,0.1604,0.1606,0,0.0951,0.097,0.0994,0.102,0.1031,0.106,0.1145,0.1176,0.1302,0.1367,0.1483,0.154,0.1634,0.1605,0.1691,0.1663,0.1662,0.166,0.1662,0.154,0.1455,0.1531,0.1629,0.1627,0.1625,0.1624,0.1622,0,0.0933,0.0968,0.099,0.0997,0.1037,0.1079,0.1114,0.1217,0.1276,0.1435,0.1517,0.1635,0.1703,0.1748,0.176,0.1741,0.1832,0.1789,0.167,0.1659,0.1747,0.1735,0.1858,0.1858,0.1858,0.1858,0.1858,0,0.0915,0.093,0.0999,0.1005,0.1056,0.1081,0.1169,0.1231,0.1355,0.1438,0.1561,0.1652,0.1747,0.1809,0.1807,0.178,0.1871,0.1707,0.1677,0.1757,0.1746,0.1755,0.1742,0.186,0.1859,0.1859,0.1859,0,0.0872,0.0913,0.0938,0.1007,0.1045,0.108,0.1196,0.1259,0.1375,0.1497,0.1556,0.1695,0.1757,0.182,0.1874,0.1813,0.1808,0.1772,0.1862,0.1832,0.1596,0.1585,0.1652,0.1647,0.1644,0.1641,0.1639,0,0.0844,0.0857,0.0941,0.0978,0.102,0.1101,0.1158,0.1273,0.1338,0.1503,0.1543,0.1669,0.1745,0.1731,0.1777,0.1775,0.1743,0.1731,0.1668,0.1618,0.1582,0.1576,0.157,0.1633,0.1632,0.1631,0.163,0,0.0787,0.0831,0.0858,0.0937,0.1013,0.1081,0.1172,0.1221,0.1333,0.1464,0.153,0.1577,0.1632,0.1657,0.1668,0.1658,0.1737,0.1694,0.17,0.1641,0.1596,0.1563,0.1561,0.1618,0.162,0.1621,0.1622,0,0.0757,0.0764,0.0819,0.0885,0.0968,0.1023,0.1087,0.116,0.1234,0.1402,0.1416,0.1529,0.1627,0.1595,0.1603,0.1586,0.1549,0.1491,0.1507,0.1521,0.1445,0.1366,0.1315,0,0,0,0,0,0.0724,0.0731,0.0768,0.0831,0.0906,0.0958,0.1068,0.1128,0.1257,0.1274,0.1344,0.1392,0.1418,0.1461,0.1413,0.1507,0.1536,0.144,0.1473,0.1552,0.1566,0.1484,0,0,0,0,0,0,0.0704,0.073,0.0739,0.0776,0.0807,0.0883,0.0949,0.1035,0.1044,0.1179,0.12,0.1299,0.1338,0.1437,0.1387,0.1395,0.1384,0.15,0.1496,0.1544,0.1557,0.1568,0.1489,0,0,0,0,0]},{"header":{"parameterUnit":"m.s-1","parameterCategory":2,"la1":30.2991,"la2":30.254,"lo1":-89.0895,"lo2":-89.0444,"dy":0.0017,"dx":0.0017,"nx":28,"ny":28,"refTime":"2023-11-05T03:00:00:Z","depth":"4","parameterNumber":3,"parameterNumberName":"V-component_of_CURRENTS"},"data":[0,0,0,0,0,0,0,0,0,0,0,0,0,0,0,0,0,0,0,0,0,0,0,0,0,0,0,0,0,0,0,0,0,0,0,0,0,0,0,0,0,0,0,0,0,0,0,0,0,0,0,0,0,0,0,0,0,0,0.038,0.038,0,0.0376,0.0375,0.0375,0.0369,0.0369,0.0369,0.0369,0.037,0.037,0.037,0,0,0,0,0,0,0,0,0,0,0,0,0,0.0377,0.0377,0.038,0.038,0.038,0.0376,0.0375,0.0375,0.0369,0.0369,0.0369,0.0369,0.037,0.037,0.037,0,0,0,0,0,0,0,0,0,0,0,0,0,0.0375,0.0377,0.038,0.0377,0.0377,0.0376,0.0375,0.0375,0.0369,0.0369,0.0369,0.0369,0.037,0.037,0.037,0.0371,0,0,0.037,0.037,0,0,0,0,0,0,0,0,0.0375,0.0375,0.0378,0.0377,0.0377,0.0374,0.0375,0.0375,0.0369,0.0371,0.0369,0.0369,0.0372,0.0372,0.037,0.0371,0.0371,0.037,0.037,0.037,0.0371,0,0,0,0,0,0,0,0.0375,0.0375,0.0377,0.0378,0.0377,0.0374,0.0374,0.0375,0.0371,0.0371,0.0371,0.0372,0.0372,0.037,0.037,0.0371,0.037,0.037,0.0371,0.0371,0.0369,0.0369,0,0,0,0,0,0,0.0378,0.0375,0.0377,0.0377,0.0377,0.0374,0.0374,0.0374,0.0371,0.0371,0.0372,0.0371,0.037,0.037,0.037,0.0393,0.037,0.0371,0.0371,0.0369,0.0369,0.0369,0,0,0,0,0,0,0.0378,0.0378,0.0378,0.0377,0.0377,0.0374,0.0375,0.0374,0.0379,0.0372,0.0372,0.0378,0.037,0.037,0.0374,0.0392,0.0371,0.0371,0.0369,0.0369,0.0369,0.0426,0,0,0,0,0,0,0.0378,0.0378,0.0383,0.0377,0.0377,0.0383,0.0375,0.0374,0.038,0.0379,0.0378,0.0377,0.037,0.0374,0.0374,0.0392,0.0371,0.0369,0.0369,0.0369,0.0424,0.0427,0.043,0,0,0,0,0,0.0378,0.0384,0.0383,0.0384,0.0382,0.0383,0.0383,0.038,0.038,0.0384,0.0381,0.0378,0.0373,0.0374,0.0374,0.0393,0.037,0.0369,0.0369,0.0422,0.0427,0.043,0,0,0,0,0,0,0.0383,0.0384,0.0383,0.0388,0.0389,0.0382,0.0388,0.0386,0.0387,0.0389,0.0381,0.038,0.0389,0.0378,0.0379,0.0388,0.0369,0.0369,0.0409,0.0413,0.0417,0.041,0.0371,0,0,0,0,0,0.0387,0.0394,0.0391,0.0397,0.0399,0.0396,0.0397,0.0396,0.0394,0.0395,0.0393,0.0388,0.0387,0.039,0.0384,0.0394,0.0354,0.0402,0.0405,0.0408,0.0401,0.0355,0.0353,0.0368,0.0368,0.0368,0,0,0.0387,0.0393,0.0394,0.0399,0.04,0.0406,0.0397,0.0404,0.0412,0.0395,0.0409,0.0402,0.039,0.04,0.0403,0.0395,0.0382,0.0408,0.0411,0.0401,0.0354,0.0353,0.0352,0.0368,0.0368,0.0368,0,0,0.0395,0.04,0.0407,0.0414,0.0422,0.042,0.0424,0.0424,0.043,0.0439,0.0428,0.0427,0.043,0.0422,0.042,0.0435,0.04,0.0439,0.0456,0.0413,0.0411,0.0409,0.0354,0.0347,0.0443,0.0443,0.0443,0,0.0394,0.0407,0.0409,0.0423,0.0432,0.0428,0.0439,0.0444,0.0446,0.0451,0.0449,0.0445,0.0438,0.0444,0.0448,0.0444,0.0407,0.0449,0.0418,0.0415,0.0412,0.0356,0.0347,0.0445,0.0445,0.0445,0.0445,0,0.0405,0.0422,0.043,0.0445,0.0454,0.0465,0.0471,0.0482,0.0488,0.0487,0.0497,0.0484,0.0478,0.0481,0.0472,0.0458,0.0433,0.0428,0.0411,0.0414,0.0355,0.0345,0.0449,0.0448,0.0447,0.0447,0,0,0.0385,0.0428,0.0431,0.0453,0.047,0.048,0.0499,0.051,0.0525,0.0526,0.0534,0.0533,0.0522,0.0516,0.0507,0.0472,0.0423,0.0445,0.0442,0.0396,0.0314,0.0286,0.0271,0.0415,0.0414,0.0413,0.028,0,0.0392,0.0429,0.0445,0.0479,0.0498,0.0512,0.0529,0.0542,0.0551,0.0557,0.0546,0.055,0.0539,0.0541,0.0505,0.0442,0.0399,0.0458,0.0312,0.0307,0.0287,0.026,0.0408,0.0272,0.0269,0.0268,0.0266,0,0.0394,0.0424,0.0461,0.0509,0.0518,0.0538,0.0571,0.0587,0.0594,0.06,0.0598,0.0583,0.0548,0.0534,0.0422,0.0461,0.0388,0.0334,0.0328,0.0272,0.026,0.0266,0.0247,0.0249,0.025,0.0252,0.0253,0,0.0386,0.0435,0.047,0.0487,0.0534,0.056,0.0582,0.0602,0.0624,0.0628,0.063,0.0591,0.0563,0.0478,0.0371,0.0393,0.0225,0.0241,0.0144,0.014,0.0183,0.0186,0.0147,0.0147,0.0147,0.0147,0.0148,0,0.0389,0.042,0.0477,0.0502,0.0547,0.0574,0.0619,0.0636,0.0657,0.0673,0.0654,0.0639,0.0544,0.0449,0.0357,0.0208,0.0209,0.0129,0.0101,0.0209,0.0217,0.0175,0.018,0.0142,0.0144,0.0145,0.0145,0,0.0382,0.0416,0.0466,0.0527,0.055,0.0586,0.0652,0.0682,0.0694,0.0711,0.0712,0.0654,0.0524,0.0411,0.0247,0.0182,0.005,-0.0004,0.0098,0.0081,-0.0002,0.0008,-0.0121,-0.0123,-0.0125,-0.0127,-0.0128,0,0.038,0.0406,0.0485,0.052,0.0557,0.0616,0.0657,0.07,0.0727,0.0715,0.0713,0.0605,0.0548,0.0292,0.0172,-0.0024,-0.0039,-0.0103,-0.0031,-0.0017,-0.0031,-0.0018,-0.0007,-0.0131,-0.0131,-0.0132,-0.0132,0,0.038,0.0411,0.0456,0.0527,0.0586,0.0649,0.0708,0.0726,0.0759,0.0768,0.0706,0.0598,0.0437,0.0271,0.0106,-0.0023,-0.0053,-0.0122,-0.0118,-0.0051,-0.003,-0.0039,-0.0026,-0.0139,-0.0138,-0.0137,-0.0137,0,0.0379,0.0406,0.0466,0.053,0.06,0.066,0.0697,0.0722,0.0747,0.0737,0.0703,0.0562,0.0481,0.0266,0.0118,-0.0019,-0.0033,-0.0043,-0.0043,-0.0037,0.0037,0.008,-0.0035,0,0,0,0,0,0.0374,0.0406,0.0462,0.0536,0.0606,0.0651,0.0718,0.0748,0.0771,0.0733,0.0725,0.0583,0.0368,0.0271,0.0126,0.0081,-0.0064,-0.0091,-0.0076,-0.0174,-0.0167,-0.0094,0,0,0,0,0,0,0.0373,0.0422,0.0453,0.0528,0.0576,0.0658,0.0703,0.0726,0.0704,0.0704,0.0583,0.0552,0.033,0.044,0.012,0.0079,0.0073,-0.0188,-0.0191,-0.0178,-0.0172,-0.0166,-0.0089,0,0,0,0,0]}]]